Burbank, CA

1:11 AM PDT on May 24, 2017 (GMT -0700)
Burbank-Glendale-Pasadena

Weather History for KBUR - September, 2013

Change the Weather History Date:

Sunday, September 8, 2013

  Actual Average Record
Temperature  
Mean Temperature 82 °F 74 °F  
Max Temperature 93 °F 88 °F 108 °F (1944)
Min Temperature 70 °F 61 °F 49 °F (1946)
Degree Days  
Heating Degree Days 0 0  
Month to date heating degree days 0 0  
Since 1 July heating degree days 0 0  
Cooling Degree Days 17 10  
Month to date cooling degree days 179 80  
Year to date cooling degree days 1608 962  
Growing Degree Days 32 (Base 50)    
Moisture  
Dew Point 53 °F    
Average Humidity 43    
Maximum Humidity 61    
Minimum Humidity 24    
Precipitation  
Precipitation 0.00 in 0.00 in 0.16 in (1982)
Month to date precipitation 0.00 0.01  
Year to date precipitation 2.61 12.65  
Since 1 July precipitation 0.01  
Sea Level Pressure  
Sea Level Pressure 29.77 in    
Wind  
Wind Speed 5 mph (SE)    
Max Wind Speed 13 mph    
Max Gust Speed 16 mph    
Visibility 10 miles    
Events      
T = Trace of Precipitation, MM = Missing Value Source: NWS Daily Summary

Daily Weather History Graph

Daily Weather History Graph

Search for Another Location

Airport or City:

Trip Planner

Search our weather history database for the weather conditions in past years. The results will help you decide how hot, cold, wet, or windy it might be!

Date:

Astronomy

Sep. 08, 2013 Rise Set
Actual Time 6:31 AM PDT 7:09 PM PDT
Civil Twilight 6:06 AM PDT 7:34 PM PDT
Nautical Twilight 5:36 AM PDT 8:04 PM PDT
Astronomical Twilight 5:06 AM PDT 8:34 PM PDT
Moon 9:43 AM PDT (9/8) 9:00 PM PDT (9/8)
Length of Visible Light 13h 27m
Length of Day
12h 37m
Waxing Crescent, 12% of the Moon is Illuminated
Sep 8
Waxing Crescent
Sep 12
First Quarter
Sep 19
Full
Sep 26
Last Quarter
Oct 4
New

Hourly Weather History & Observations

Time (PDT) Temp. Heat Index Dew Point Humidity Pressure Visibility Wind Dir Wind Speed Gust Speed Precip Events Conditions
12:53 AM 77.0 °F - 57.0 °F 50% 29.81 in 10.0 mi East 4.6 mph - N/A   Clear
1:53 AM 77.0 °F - 55.0 °F 47% 29.80 in 10.0 mi East 4.6 mph - N/A   Clear
2:53 AM 75.9 °F - 55.0 °F 48% 29.80 in 10.0 mi Calm Calm - N/A   Clear
3:53 AM 75.0 °F - 54.0 °F 48% 29.79 in 10.0 mi Calm Calm - N/A   Clear
4:53 AM 73.0 °F - 46.9 °F 39% 29.79 in 10.0 mi Calm Calm - N/A   Clear
5:53 AM 72.0 °F - 46.0 °F 40% 29.80 in 10.0 mi Calm Calm - N/A   Clear
6:53 AM 72.0 °F - 46.0 °F 40% 29.81 in 10.0 mi Calm Calm - N/A   Clear
7:53 AM 75.9 °F - 46.9 °F 36% 29.81 in 10.0 mi Calm Calm - N/A   Clear
8:53 AM 79.0 °F - 48.9 °F 35% 29.82 in 10.0 mi Calm Calm - N/A   Clear
9:53 AM 84.0 °F - 51.1 °F 32% 29.82 in 10.0 mi South 3.5 mph - N/A   Clear
10:53 AM 87.1 °F 84.9 °F 53.1 °F 31% 29.81 in 10.0 mi SE 6.9 mph - N/A   Clear
11:53 AM 90.0 °F 87.7 °F 54.0 °F 29% 29.79 in 10.0 mi SSW 5.8 mph - N/A   Clear
12:53 PM 91.9 °F - 52.0 °F 26% 29.78 in 10.0 mi South 8.1 mph - N/A   Clear
1:53 PM 91.9 °F - 51.1 °F 25% 29.76 in 10.0 mi South 10.4 mph - N/A   Clear
2:53 PM 90.0 °F - 51.1 °F 26% 29.74 in 10.0 mi South 12.7 mph - N/A   Clear
3:53 PM 89.1 °F - 48.0 °F 24% 29.72 in 10.0 mi South 9.2 mph - N/A   Clear
4:53 PM 87.1 °F - 52.0 °F 30% 29.71 in 10.0 mi South 6.9 mph - N/A   Clear
5:53 PM 86.0 °F 84.5 °F 55.0 °F 35% 29.71 in 10.0 mi ESE 10.4 mph - N/A   Clear
6:53 PM 80.1 °F 80.4 °F 57.0 °F 45% 29.72 in 10.0 mi ESE 8.1 mph - N/A   Clear
7:53 PM 75.9 °F - 57.0 °F 52% 29.73 in 10.0 mi SE 5.8 mph - N/A   Clear
8:53 PM 75.0 °F - 55.9 °F 51% 29.74 in 10.0 mi ESE 6.9 mph - N/A   Clear
9:53 PM 73.0 °F - 57.9 °F 59% 29.76 in 10.0 mi East 9.2 mph - N/A   Clear
10:53 PM 72.0 °F - 57.9 °F 61% 29.76 in 10.0 mi East 3.5 mph - N/A   Clear
11:53 PM 71.1 °F - 57.9 °F 63% 29.76 in 10.0 mi Calm Calm - N/A   Clear